Location: C�an Torras
(41.5052°N, 1.9280°E)
Time: 21:08:49
(UTC+00:00)

NOSS 3-1 (A) - Pass Details

Date: 20 January 2021
Orbit: 735 x 1477 km, 63.4° (Epoch: 02 March)

Event Time Altitude Azimuth Distance (km) Brightness Sun altitude
Rises 19:56:03 0° 325° (NW) 3,966 7.1 -33.9°
Reaches altitude 10° 19:58:36 10° 328° (NNW) 3,103 6.5 -34.4°
Enters shadow 20:04:20 55° 350° (N) 1,526 4.4 -35.5°
